[[[{"header":{"parameterUnit":"kt","parameterCategory":2,"dx":1,"dy":1,"la1":30.253999710083008,"la2":30.299108505249023,"lo1":-89.0895004272461,"lo2":-89.04439544677734,"nx":28,"ny":28,"refTime":"2022-10-26T21:00:00:Z","depth":0,"parameterNumber":1,"parameterNumberName":"U-component_of_WINDS"},"data":[-7.1572,-7.1759,-7.1717,-7.1911,-7.1906,-7.2031,-7.2063,-7.2098,-7.2116,-7.226,-7.2335,-7.2312,-7.2313,-7.2392,-7.2471,-7.2459,-7.2495,-7.2591,-7.2559,-7.2168,-7.2111,-7.2056,-7.2008,-7.26,-7.2601,-7.2969,-7.2973,-7.2976,-7.1284,-7.1281,-7.1373,-7.1432,-7.1509,-7.1391,-7.1429,-7.1501,-7.1616,-7.164,-7.1712,-7.1836,-7.1928,-7.1896,-7.1977,-7.2063,-7.2011,-7.2087,-7.2079,-7.2081,-7.1661,-7.1611,-7.2127,-7.2127,-7.2127,-7.2127,-7.2127,-7.2127,-7.0749,-7.0864,-7.0875,-7.0973,-7.0992,-7.1032,-7.1134,-7.1102,-7.1191,-7.1271,-7.1204,-7.1334,-7.135,-7.1427,-7.1443,-7.1542,-7.145,-7.152,-7.1537,-7.1556,-7.1582,-7.105,-7.1555,-7.1553,-7.1552,-7.155,-7.1549,0,-7.0343,-7.03,-7.0385,-7.0458,-7.0527,-7.0579,-7.062,-7.0682,-7.0576,-7.0654,-7.0763,-7.0819,-7.0929,-7.1026,-7.1093,-7.1094,-7.0978,-7.0963,-7.1011,-7.1044,-7.1065,-7.1053,-7.0369,-7.0949,-7.0943,-7.094,-7.0937,-7.0935,-6.9798,-6.9938,-6.993,-6.9995,-7.0006,-7.0115,-7.017,-7.0065,-7.0129,-7.0163,-7.027,-7.0367,-7.0438,-7.0621,-7.0582,-7.0665,-7.0609,-7.0835,-7.0621,-7.0647,-7.061,-7.0602,-7.0614,-7.0878,-7.0885,-7.0891,-7.0896,0,-6.9494,-6.9424,-6.9628,-6.9605,-6.9604,-6.9756,-6.9736,-6.9847,-6.9804,-6.9951,-6.9979,-6.9913,-7.0022,-6.9946,-7.0057,-7.0014,-7.0261,-7.0206,-7.0253,-7.0237,-7.043,-7.0412,-7.1072,-7.1152,-7.054,-7.0546,-7.0551,0,-6.9001,-6.919,-6.9073,-6.9195,-6.94,-6.9289,-6.9496,-6.9479,-6.949,-6.9605,-6.9461,-6.9572,-6.9457,-6.9557,-6.9494,-6.9683,-6.9704,-6.9682,-6.9663,-6.9694,-6.9697,-6.9725,-6.9696,-6.9616,-6.9613,-6.961,-6.9608,0,-6.8531,-6.8691,-6.8889,-6.8914,-6.891,-6.9005,-6.9008,-6.902,-6.9076,-6.9136,-6.9171,-6.925,-6.9293,-6.9356,-6.9274,-6.9132,-6.9504,-6.9291,-6.9481,-6.9484,-6.9567,-6.9563,-7.0167,-6.9603,-6.9603,-6.9601,-6.96,0,-6.8121,-6.8184,-6.8483,-6.8474,-6.852,-6.8652,-6.872,-6.8815,-6.8839,-6.8807,-6.8854,-6.8748,-6.8909,-6.8702,-6.8921,-6.8758,-6.8808,-6.8802,-6.8814,-6.8823,-6.8594,-6.8943,-6.9527,-6.9584,-6.8831,-6.8825,-6.8819,0,-6.7602,-6.7885,-6.7791,-6.8078,-6.8197,-6.8025,-6.8168,-6.8194,-6.8163,-6.8259,-6.8224,-6.8336,-6.8167,-6.8191,-6.8309,-6.8278,-6.8491,-6.8248,-6.8387,-6.8393,-6.8384,-6.8921,-6.9026,-6.9407,-6.8736,-6.8745,-6.8751,0,-6.719,-6.7183,-6.7241,-6.7264,-6.728,-6.738,-6.7546,-6.7632,-6.7701,-6.7746,-6.7881,-6.8038,-6.7915,-6.7958,-6.7881,-6.8009,-6.8344,-6.786,-6.7859,-6.7949,-6.8689,-6.8787,-6.8852,-6.8263,-6.8273,-6.8281,-6.8686,0,-6.6582,-6.6715,-6.6869,-6.6927,-6.6993,-6.7169,-6.7087,-6.7166,-6.7083,-6.7047,-6.7246,-6.7249,-6.7338,-6.7392,-6.7314,-6.7631,-6.7565,-6.7434,-6.7228,-6.7581,-6.7712,-6.7766,-6.7039,-6.7032,-6.7026,-6.7022,0,0,-6.6102,-6.629,-6.6182,-6.6339,-6.6387,-6.6206,-6.6402,-6.6428,-6.6487,-6.6524,-6.6407,-6.663,-6.6639,-6.6889,-6.6993,-6.7031,-6.7079,-6.6959,-6.7414,-6.7458,-6.7499,-6.764,-6.7698,-6.7012,-6.701,-6.7008,-6.7006,0,-6.5861,-6.5873,-6.6068,-6.6089,-6.6117,-6.6068,-6.6116,-6.6112,-6.6098,-6.6293,-6.6141,-6.6251,-6.6435,-6.6461,-6.6499,-6.6927,-6.6806,-6.6961,-6.7217,-6.7361,-6.7413,-6.7458,-6.7608,-6.7664,-6.6993,-6.6994,-6.6994,0,-6.544,-6.5436,-6.5522,-6.5624,-6.5641,-6.5771,-6.5532,-6.568,-6.5774,-6.557,-6.5767,-6.5758,-6.5789,-6.6038,-6.6146,-6.6044,-6.6563,-6.6386,-6.6419,-6.6429,-6.6565,-6.6627,-6.6682,-6.5955,-6.5952,-6.5949,0,0,-6.5244,-6.5367,-6.5331,-6.5567,-6.5588,-6.5518,-6.5579,-6.5503,-6.5534,-6.5548,-6.5533,-6.5569,-6.5672,-6.5744,-6.5838,-6.6124,-6.612,-6.6261,-6.631,-6.6351,-6.6383,-6.653,-6.6591,-6.5936,-6.5936,-6.5935,0,0,-6.515,-6.5117,-6.5028,-6.5291,-6.5325,-6.5306,-6.5453,-6.5344,-6.542,-6.539,-6.5271,-6.5275,-6.5506,-6.5504,-6.5347,-6.5763,-6.556,-6.5596,-6.5756,-6.5816,-6.5864,-6.586,-6.5104,0,0,0,0,0,-6.4862,-6.512,-6.504,-6.5072,-6.5202,-6.535,-6.5366,-6.5272,-6.5129,-6.5247,-6.5217,-6.5085,-6.5394,-6.5252,-6.5286,-6.5462,-6.5776,-6.5804,-6.5831,-6.6104,-6.6168,-6.6222,0,0,0,0,0,0,-6.4874,-6.4913,-6.5033,-6.5026,-6.5054,-6.534,-6.5077,-6.5058,-6.5114,-6.5085,-6.5095,-6.5085,-6.5009,-6.5228,-6.526,-6.543,-6.5093,-6.5787,-6.5811,-6.5833,-6.6126,-6.6178,-6.6224,0,0,0,0,0,-6.4883,-6.4914,-6.5147,-6.5021,-6.5046,-6.4983,-6.5066,-6.5048,-6.509,-6.5046,-6.5031,-6.5014,-6.5016,-6.5036,-6.5247,-6.5418,-6.5071,-6.5083,-6.5803,-6.5822,-6.5839,-6.6152,0,0,0,0,0,0,-6.4889,-6.4899,-6.515,-6.5154,-6.4917,-6.4964,-6.4969,-6.5041,-6.5044,-6.5033,-6.4958,-6.4935,-6.5025,-6.5038,-6.5055,-6.5419,-6.5052,-6.5065,-6.5072,-6.5817,-6.5832,-6.5845,0,0,0,0,0,0,-6.4882,-6.4904,-6.5152,-6.5025,-6.5014,-6.4949,-6.4953,-6.5118,-6.5047,-6.4956,-6.4937,-6.4948,-6.5,-6.5042,-6.5054,-6.5316,-6.5038,-6.505,-6.5058,-6.5063,-6.5829,-6.5841,0,0,0,0,0,0,-6.4889,-6.4909,-6.5023,-6.5015,-6.5004,-6.5041,-6.5093,-6.5232,-6.4938,-6.4958,-6.4909,-6.4895,-6.5007,-6.5017,-6.5054,-6.5312,-6.5315,-6.5038,-6.5046,-6.5052,-6.5056,0,0,0,0,0,0,0,-6.4896,-6.4789,-6.5127,-6.5006,-6.4996,-6.519,-6.5191,-6.5192,-6.4935,-6.4923,-6.4912,-6.4901,-6.497,-6.4983,-6.4996,-6.5309,0,0,-6.5037,-6.5043,0,0,0,0,0,0,0,0,-6.4779,-6.4787,-6.5127,-6.5128,-6.5128,-6.519,-6.5191,-6.5192,-6.4933,-6.4923,-6.4914,-6.4905,-6.4973,-6.4984,-6.4995,0,0,0,0,0,0,0,0,0,0,0,0,0,0,0,-6.5127,-6.5128,0,-6.519,-6.5191,-6.5192,-6.4932,-6.4924,-6.4916,-6.4909,-6.4976,-6.4985,-6.4994,0,0,0,0,0,0,0,0,0,0,0,0,0,0,0,0,0,0,0,0,0,0,0,0,0,0,0,0,0,0,0,0,0,0,0,0,0,0,0,0,0,0,0,0,0,0,0,0,0,0,0,0,0,0,0,0,0,0,0,0,0,0,0,0,0,0,0,0,0]}],[{"header":{"parameterUnit":"kt","parameterCategory":2,"dx":1,"dy":1,"la1":30.253999710083008,"la2":30.299108505249023,"lo1":-89.0895004272461,"lo2":-89.04439544677734,"nx":28,"ny":28,"refTime":"2022-10-26T21:00:00:Z","depth":0,"parameterNumber":2,"parameterNumberName":"V-component_of_WINDS"},"data":[-8.0772,-8.0881,-8.0886,-8.1011,-8.1036,-8.112,-8.1152,-8.1192,-8.1224,-8.1323,-8.138,-8.1393,-8.1424,-8.149,-8.155,-8.1553,-8.1576,-8.1611,-8.1609,-8.1453,-8.1432,-8.1411,-8.1385,-8.1618,-8.1618,-8.1768,-8.1769,-8.177,-8.0651,-8.0678,-8.0747,-8.0816,-8.0874,-8.0842,-8.0894,-8.0943,-8.1019,-8.1061,-8.1118,-8.1205,-8.1273,-8.1293,-8.1357,-8.1404,-8.1391,-8.1421,-8.1415,-8.1419,-8.1254,-8.1227,-8.143,-8.143,-8.143,-8.143,-8.143,-8.143,-8.0432,-8.0499,-8.0544,-8.0619,-8.0655,-8.0701,-8.0763,-8.078,-8.0845,-8.0917,-8.0909,-8.0994,-8.1034,-8.1114,-8.1142,-8.1205,-8.1172,-8.1205,-8.1212,-8.1219,-8.1226,-8.1001,-8.1217,-8.1217,-8.1216,-8.1216,-8.1215,0,-8.0272,-8.0271,-8.0339,-8.0408,-8.0463,-8.0516,-8.0565,-8.0604,-8.0602,-8.0656,-8.0734,-8.0779,-8.0867,-8.0938,-8.1,-8.1022,-8.099,-8.099,-8.1011,-8.1014,-8.1007,-8.1007,-8.0733,-8.0982,-8.098,-8.0979,-8.0978,-8.0977,-8.0047,-8.0127,-8.0177,-8.0223,-8.0252,-8.0328,-8.0373,-8.0366,-8.0414,-8.0471,-8.0529,-8.0602,-8.066,-8.0783,-8.0797,-8.0862,-8.0847,-8.0941,-8.0856,-8.0856,-8.0842,-8.0836,-8.0841,-8.0956,-8.0959,-8.0961,-8.0963,0,-7.9918,-7.9927,-8.0051,-8.0094,-8.0107,-8.0189,-8.0223,-8.0289,-8.0298,-8.0388,-8.0409,-8.0422,-8.0497,-8.0498,-8.0585,-8.0582,-8.0708,-8.0694,-8.0693,-8.0688,-8.0769,-8.076,-8.104,-8.1075,-8.0838,-8.0841,-8.0843,0,-7.9728,-7.9833,-7.9838,-7.991,-8.0025,-8.0016,-8.0128,-8.0147,-8.0185,-8.0256,-8.0224,-8.0291,-8.0282,-8.0348,-8.0345,-8.0449,-8.0467,-8.0469,-8.0466,-8.047,-8.0469,-8.049,-8.0477,-8.0462,-8.0461,-8.046,-8.0459,0,-7.9523,-7.9651,-7.9769,-7.9799,-7.9855,-7.9909,-7.9934,-7.9977,-8.0021,-8.0079,-8.0107,-8.0175,-8.0211,-8.0262,-8.0256,-8.0198,-8.0386,-8.0305,-8.0387,-8.0387,-8.0426,-8.0423,-8.0675,-8.0457,-8.0456,-8.0456,-8.0455,0,-7.9369,-7.9432,-7.9603,-7.9647,-7.9681,-7.9759,-7.9826,-7.9893,-7.994,-7.9943,-7.9989,-7.9966,-8.0062,-7.998,-8.0109,-8.0035,-8.0071,-8.0083,-8.0089,-8.0094,-8.0002,-8.0139,-8.0383,-8.0406,-8.0102,-8.0099,-8.0097,0,-7.9129,-7.9305,-7.93,-7.9463,-7.9544,-7.9502,-7.9587,-7.9631,-7.9644,-7.9711,-7.9723,-7.9801,-7.9742,-7.9765,-7.983,-7.9844,-7.9942,-7.9832,-7.9922,-7.9925,-7.9906,-8.0132,-8.0166,-8.033,-8.0059,-8.0063,-8.0066,0,-7.8944,-7.9015,-7.9045,-7.9078,-7.9138,-7.9207,-7.9307,-7.9383,-7.9428,-7.9483,-7.9563,-7.9675,-7.9632,-7.9673,-7.9663,-7.973,-7.9875,-7.9675,-7.9676,-7.9707,-8.0042,-8.0073,-8.0101,-7.9853,-7.9857,-7.9861,-8.0036,0,-7.87,-7.8792,-7.8874,-7.8953,-7.9007,-7.9111,-7.9115,-7.9171,-7.9155,-7.9166,-7.9286,-7.9324,-7.94,-7.9434,-7.9421,-7.9576,-7.9549,-7.9504,-7.9422,-7.9572,-7.9629,-7.9653,-7.9336,-7.9333,-7.9331,-7.933,0,0,-7.8465,-7.8598,-7.859,-7.8689,-7.8734,-7.869,-7.88,-7.8838,-7.8917,-7.8946,-7.8902,-7.9065,-7.9097,-7.9242,-7.9289,-7.9322,-7.9348,-7.9297,-7.9501,-7.9521,-7.9538,-7.96,-7.9625,-7.9326,-7.9325,-7.9325,-7.9324,0,-7.8377,-7.8418,-7.853,-7.857,-7.8629,-7.8636,-7.8663,-7.8713,-7.8725,-7.8846,-7.8805,-7.8878,-7.9011,-7.9048,-7.9085,-7.928,-7.9243,-7.9304,-7.9406,-7.9481,-7.9503,-7.9522,-7.9587,-7.9611,-7.9319,-7.9319,-7.932,0,-7.8192,-7.8231,-7.8287,-7.8392,-7.843,-7.8516,-7.8432,-7.8529,-7.8591,-7.8536,-7.8656,-7.8677,-7.873,-7.8869,-7.8932,-7.8892,-7.9147,-7.907,-7.9082,-7.9088,-7.9161,-7.9187,-7.9211,-7.8901,-7.89,-7.8898,0,0,-7.8115,-7.8202,-7.8241,-7.8373,-7.84,-7.8414,-7.8461,-7.8451,-7.8502,-7.8522,-7.8549,-7.8598,-7.8673,-7.8724,-7.8796,-7.8949,-7.8957,-7.9018,-7.9038,-7.9054,-7.9068,-7.9146,-7.9172,-7.8893,-7.8893,-7.8893,0,0,-7.8077,-7.8129,-7.8106,-7.826,-7.8311,-7.8357,-7.8436,-7.8407,-7.8474,-7.8462,-7.8448,-7.846,-7.859,-7.8613,-7.8539,-7.8766,-7.8685,-7.8704,-7.8746,-7.8771,-7.879,-7.878,-7.8456,0,0,0,0,0,-7.799,-7.8122,-7.8101,-7.8128,-7.826,-7.8369,-7.8386,-7.8379,-7.8321,-7.8383,-7.84,-7.836,-7.8569,-7.8503,-7.8528,-7.8611,-7.8821,-7.8834,-7.8846,-7.8937,-7.8963,-7.8985,0,0,0,0,0,0,-7.8,-7.8033,-7.8097,-7.815,-7.8179,-7.8364,-7.8265,-7.8266,-7.8314,-7.8305,-7.8358,-7.8362,-7.8356,-7.8489,-7.8512,-7.8591,-7.8448,-7.8826,-7.8837,-7.8847,-7.8946,-7.8967,-7.8985,0,0,0,0,0,-7.8009,-7.8035,-7.825,-7.8148,-7.8173,-7.8196,-7.826,-7.826,-7.8297,-7.8325,-7.8328,-7.8287,-7.8359,-7.8377,-7.8503,-7.8581,-7.8432,-7.8441,-7.8833,-7.8842,-7.8849,-7.8956,0,0,0,0,0,0,-7.8015,-7.8035,-7.8255,-7.8262,-7.8098,-7.8185,-7.8199,-7.8255,-7.8314,-7.8318,-7.8253,-7.8245,-7.8362,-7.8376,-7.839,-7.8578,-7.8419,-7.8428,-7.8433,-7.884,-7.8846,-7.8852,0,0,0,0,0,0,-7.8021,-7.8042,-7.8259,-7.8196,-7.8197,-7.8175,-7.8187,-7.8294,-7.8315,-7.8238,-7.8233,-7.8249,-7.8339,-7.8376,-7.8387,-7.8553,-7.8409,-7.8418,-7.8424,-7.8427,-7.8845,-7.885,0,0,0,0,0,0,-7.8029,-7.8048,-7.8194,-7.8195,-7.8194,-7.8277,-7.8268,-7.8404,-7.8265,-7.8236,-7.8252,-7.8246,-7.834,-7.8351,-7.8384,-7.8546,-7.8551,-7.841,-7.8415,-7.8419,-7.8422,0,0,0,0,0,0,0,-7.8036,-7.7918,-7.8211,-7.8193,-7.8193,-7.8331,-7.8333,-7.8335,-7.8263,-7.8258,-7.8253,-7.8248,-7.8362,-7.8371,-7.838,-7.8541,0,0,-7.8409,-7.8413,0,0,0,0,0,0,0,0,-7.791,-7.7916,-7.8212,-7.8213,-7.8215,-7.8331,-7.8333,-7.8334,-7.8263,-7.8258,-7.8254,-7.825,-7.8364,-7.8372,-7.8379,0,0,0,0,0,0,0,0,0,0,0,0,0,0,0,-7.8212,-7.8213,0,-7.8331,-7.8333,-7.8334,-7.8262,-7.8258,-7.8255,-7.8252,-7.8366,-7.8372,-7.8379,0,0,0,0,0,0,0,0,0,0,0,0,0,0,0,0,0,0,0,0,0,0,0,0,0,0,0,0,0,0,0,0,0,0,0,0,0,0,0,0,0,0,0,0,0,0,0,0,0,0,0,0,0,0,0,0,0,0,0,0,0,0,0,0,0,0,0,0,0]}]]]